CZ-11 DEB

基本信息
目录编号:
41846
目录名称:
CZ-11 DEB
国际标识:
2016-066F
轨道中心:
EARTH
物体状态:
在轨
发射日期:
2016-11-09 UTC
轨道信息
数据来源: 国际轨道数据
星历时间: 2026-07-14T01:17:34+0800
半长轴: 7087.373km
偏心率: 0.0305615
轨道倾角: 98.424°
近地点辐角: 22.008°
升交点赤经: 285.210°
平近点角: 339.392°
近地点: 492.635km
远地点: 925.837km
周期: 98.966分钟
每日圈数: 14.550398
详细信息
发射场:
JSC
轨道高度:
LEO
数据来源:
AOE Integration Group
参考系:
TEME
时间系统:
UTC
历元类型:
SGP4
2D轨道图
3D轨道图
轨道高度分析图
轨道倾角分析图
轨道综合分析图
查看轨道综合分析图